Tracking 24122 objects as of 7-Dec-2021
HD Live streaming from Space Station
objects crossing your sky now

PEGASUS DEB

Track PEGASUS DEB now!
10-day predictions


NORAD ID: 26740
Int'l Code: 1994-029AEH
Perigee: 519.2 km
Apogee: 675.9 km
Inclination: 81.9 °
Period: 96.5 minutes
Semi major axis: 6968 km
RCS: 0.0098 m2 (small)
Launch date: May 19, 1994
Source: United States (US)
Launch site: AIR FORCE WESTERN TEST RANGE (AFWTR)

Note: This is SATELLITE DEBRIS
aabbcc
Your satellite tracking list
Your tracking list is empty




NASA's NSSDC Master Catalog

Two Line Element Set (TLE):
1 26740U 94029AEH 21339.77066987  .00001777  00000-0  15099-3 0  9990
2 26740  81.8689 245.0140 0112389  78.8516 334.7106 14.92413696245916
Source of the keplerian elements: AFSPC